Weather History for KMML - September, 2013

Change the Weather History Date:

Wednesday, September 18, 2013

  Actual Average Record
Temperature  
Mean Temperature 74 °F -  
Max Temperature 89 °F 72 °F 93 °F (1984)
Min Temperature 60 °F 51 °F 33 °F (1971)
Cooling Degree Days 10    
Growing Degree Days 24 (Base 50)    
Moisture  
Dew Point 65 °F    
Average Humidity 73    
Maximum Humidity 94    
Minimum Humidity 49    
Precipitation  
Precipitation 0.00 in - - ()
Sea Level Pressure  
Sea Level Pressure 29.70 in    
Wind  
Wind Speed 11 mph (SSE)    
Max Wind Speed 17 mph    
Max Gust Speed 24 mph    
Visibility 8 miles    
Events      
Averages and records for this station are not official NWS values.
T = Trace of Precipitation, MM = Missing Value Source: NWS Daily Summary

Daily Weather History Graph

Daily Weather History Graph

Search for Another Location

Airport or City:

Trip Planner

Search our weather history database for the weather conditions in past years. The results will help you decide how hot, cold, wet, or windy it might be!

Date:

Astronomy

Sep. 18, 2013 Rise Set
Actual Time 7:06 AM CDT 7:27 PM CDT
Civil Twilight 6:36 AM CDT 7:56 PM CDT
Nautical Twilight 6:02 AM CDT 8:31 PM CDT
Astronomical Twilight 5:27 AM CDT 9:06 PM CDT
Moon 6:50 PM CDT (9/18) 6:09 AM CDT (9/18)
Length of Visible Light 13h 19m
Length of Day
12h 21m
Waxing Gibbous, 99% of the Moon is Illuminated
Sep 18
Waxing Gibbous
Sep 19
Full
Sep 26
Last Quarter
Oct 4
New
Oct 11
First Quarter

Hourly Weather History & Observations

Time (CDT) Temp. Heat Index Dew Point Humidity Pressure Visibility Wind Dir Wind Speed Gust Speed Precip Events Conditions
12:15 AM 60.8 °F - 55.4 °F 82% 29.85 in 9.0 mi SSE 10.4 mph - N/A   Overcast
12:35 AM 60.8 °F - 57.2 °F 88% 29.85 in 8.0 mi SSE 11.5 mph - N/A   Overcast
12:55 AM 60.8 °F - 57.2 °F 88% 29.84 in 7.0 mi SE 11.5 mph - N/A   Overcast
1:15 AM 60.8 °F - 57.2 °F 88% 29.83 in 5.0 mi SE 11.5 mph - N/A   Overcast
1:35 AM 60.8 °F - 57.2 °F 88% 29.82 in 4.0 mi SE 9.2 mph - N/A   Overcast
1:55 AM 62.6 °F - 57.2 °F 82% 29.82 in 3.0 mi SSE 9.2 mph - N/A   Overcast
2:15 AM 62.6 °F - 57.2 °F 82% 29.81 in 2.0 mi SE 9.2 mph - N/A   Overcast
2:35 AM 62.6 °F - 59.0 °F 88% 29.81 in 1.8 mi SE 9.2 mph - N/A   Overcast
2:55 AM 62.6 °F - 59.0 °F 88% 29.80 in 1.5 mi SE 9.2 mph - N/A   Overcast
3:15 AM 62.6 °F - 59.0 °F 88% 29.79 in 1.2 mi SE 6.9 mph - N/A   Overcast
3:35 AM 62.6 °F - 60.8 °F 94% 29.78 in 1.8 mi ESE 8.1 mph - N/A   Overcast
3:55 AM 62.6 °F - 60.8 °F 94% 29.77 in 2.0 mi ESE 8.1 mph - N/A   Overcast
4:15 AM 62.6 °F - 60.8 °F 94% 29.77 in 2.5 mi ESE 6.9 mph - N/A   Overcast
4:35 AM 64.4 °F - 60.8 °F 88% 29.77 in 2.5 mi SE 5.8 mph - N/A   Scattered Clouds
4:55 AM 64.4 °F - 60.8 °F 88% 29.75 in 3.0 mi SE 8.1 mph - N/A   Partly Cloudy
5:15 AM 64.4 °F - 62.6 °F 94% 29.75 in 3.0 mi SE 6.9 mph - N/A   Mostly Cloudy
5:35 AM 64.4 °F - 62.6 °F 94% 29.74 in 3.0 mi SE 6.9 mph - N/A   Mostly Cloudy
5:55 AM 66.2 °F - 62.6 °F 88% 29.74 in 3.0 mi SE 8.1 mph - N/A   Scattered Clouds
6:15 AM 66.2 °F - 62.6 °F 88% 29.73 in 4.0 mi SSE 8.1 mph - N/A   Scattered Clouds
6:35 AM 68.0 °F - 64.4 °F 88% 29.73 in 5.0 mi SSE 9.2 mph - N/A   Partly Cloudy
6:55 AM 69.8 °F - 64.4 °F 83% 29.73 in 5.0 mi South 9.2 mph - N/A   Partly Cloudy
7:15 AM 69.8 °F - 64.4 °F 83% 29.73 in 5.0 mi South 9.2 mph - N/A   Partly Cloudy
7:35 AM 69.8 °F - 64.4 °F 83% 29.73 in 5.0 mi SSE 9.2 mph - N/A   Partly Cloudy
7:55 AM 69.8 °F - 64.4 °F 83% 29.74 in 5.0 mi South 9.2 mph - N/A   Scattered Clouds
8:15 AM 69.8 °F - 64.4 °F 83% 29.74 in 5.0 mi South 11.5 mph - N/A   Scattered Clouds
8:35 AM 71.6 °F - 64.4 °F 78% 29.74 in 7.0 mi South 10.4 mph - N/A   Mostly Cloudy
8:55 AM 71.6 °F - 64.4 °F 78% 29.74 in 7.0 mi South 10.4 mph - N/A   Overcast
9:15 AM 71.6 °F - 64.4 °F 78% 29.75 in 8.0 mi South 10.4 mph - N/A   Overcast
9:35 AM 73.4 °F - 64.4 °F 73% 29.74 in 9.0 mi South 13.8 mph - N/A   Overcast
9:55 AM 73.4 °F - 66.2 °F 78% 29.74 in 9.0 mi SSW 11.5 mph 17.3 mph N/A   Overcast
10:15 AM 73.4 °F - 64.4 °F 73% 29.74 in 10.0 mi South 13.8 mph - N/A   Overcast
10:35 AM 73.4 °F - 64.4 °F 73% 29.73 in 10.0 mi South 13.8 mph - N/A   Overcast
10:55 AM 73.4 °F - 64.4 °F 73% 29.73 in 10.0 mi South 16.1 mph 20.7 mph N/A   Overcast
11:15 AM 75.2 °F - 66.2 °F 73% 29.72 in 10.0 mi South 17.3 mph 20.7 mph N/A   Overcast
11:35 AM 75.2 °F - 66.2 °F 73% 29.71 in 10.0 mi South 15.0 mph - N/A   Overcast
11:55 AM 77.0 °F - 64.4 °F 65% 29.70 in 10.0 mi SSW 17.3 mph 23.0 mph N/A   Overcast
12:15 PM 77.0 °F - 64.4 °F 65% 29.70 in 10.0 mi South 16.1 mph - N/A   Mostly Cloudy
12:35 PM 78.8 °F - 66.2 °F 65% 29.69 in 10.0 mi South 16.1 mph 20.7 mph N/A   Partly Cloudy
12:55 PM 80.6 °F 82.7 °F 66.2 °F 61% 29.68 in 10.0 mi South 17.3 mph 20.7 mph N/A   Clear
1:15 PM 80.6 °F 82.7 °F 66.2 °F 61% 29.68 in 10.0 mi SSE 16.1 mph - N/A   Clear
1:35 PM 82.4 °F 84.6 °F 66.2 °F 58% 29.68 in 10.0 mi SSE 16.1 mph - N/A   Clear
1:55 PM 82.4 °F 85.4 °F 68.0 °F 62% 29.67 in 10.0 mi South 16.1 mph - N/A   Clear
2:15 PM 84.2 °F 87.3 °F 68.0 °F 58% 29.66 in 10.0 mi SSE 16.1 mph - N/A   Clear
2:35 PM 84.2 °F 88.4 °F 69.8 °F 62% 29.65 in 10.0 mi South 17.3 mph - N/A   Clear
2:55 PM 84.2 °F 87.3 °F 68.0 °F 58% 29.65 in 10.0 mi South 17.3 mph 21.9 mph N/A   Clear
3:15 PM 86.0 °F 89.4 °F 68.0 °F 55% 29.65 in 10.0 mi South 17.3 mph - N/A   Clear
3:35 PM 87.8 °F 92.6 °F 69.8 °F 55% 29.64 in 10.0 mi South 17.3 mph 24.2 mph N/A   Clear
3:55 PM 87.8 °F 92.6 °F 69.8 °F 55% 29.63 in 10.0 mi South 16.1 mph 23.0 mph N/A   Clear
4:15 PM 89.6 °F 93.4 °F 68.0 °F 49% 29.63 in 10.0 mi South 15.0 mph 20.7 mph N/A   Clear
4:35 PM 89.6 °F 94.7 °F 69.8 °F 52% 29.63 in 10.0 mi South 16.1 mph 23.0 mph N/A   Clear
4:55 PM 89.6 °F 94.7 °F 69.8 °F 52% 29.63 in 10.0 mi South 16.1 mph 21.9 mph N/A   Clear
5:15 PM 89.6 °F 93.4 °F 68.0 °F 49% 29.63 in 10.0 mi South 16.1 mph 23.0 mph N/A   Clear
5:35 PM 89.6 °F 93.4 °F 68.0 °F 49% 29.63 in 10.0 mi SSW 16.1 mph - N/A   Clear
5:55 PM 87.8 °F 91.4 °F 68.0 °F 52% 29.63 in 10.0 mi SSW 16.1 mph 20.7 mph N/A   Clear
6:15 PM 87.8 °F 91.4 °F 68.0 °F 52% 29.64 in 10.0 mi SSW 15.0 mph - N/A   Clear
6:35 PM 86.0 °F 89.4 °F 68.0 °F 55% 29.64 in 10.0 mi SSW 11.5 mph - N/A   Clear
6:55 PM 84.2 °F 87.3 °F 68.0 °F 58% 29.64 in 10.0 mi South 10.4 mph - N/A   Clear
7:15 PM 82.4 °F 85.4 °F 68.0 °F 62% 29.63 in 10.0 mi South 12.7 mph - N/A   Clear
7:35 PM 82.4 °F 84.6 °F 66.2 °F 58% 29.63 in 10.0 mi South 11.5 mph - N/A   Clear
7:55 PM 80.6 °F 82.7 °F 66.2 °F 61% 29.62 in 10.0 mi South 10.4 mph - N/A   Clear
8:15 PM 78.8 °F - 66.2 °F 65% 29.64 in 10.0 mi South 9.2 mph - N/A   Clear
8:35 PM 78.8 °F - 66.2 °F 65% 29.64 in 10.0 mi South 9.2 mph - N/A   Clear
8:55 PM 78.8 °F - 66.2 °F 65% 29.64 in 10.0 mi SSE 9.2 mph - N/A   Clear
9:15 PM 77.0 °F - 66.2 °F 69% 29.64 in 10.0 mi SE 6.9 mph - N/A   Clear
9:35 PM 75.2 °F - 66.2 °F 73% 29.63 in 10.0 mi SE 8.1 mph - N/A   Clear
9:55 PM 75.2 °F - 66.2 °F 73% 29.63 in 10.0 mi SSE 8.1 mph - N/A   Clear
10:15 PM 75.2 °F - 66.2 °F 73% 29.64 in 10.0 mi SE 5.8 mph - N/A   Clear
10:35 PM 73.4 °F - 66.2 °F 78% 29.65 in 10.0 mi SSE 6.9 mph - N/A   Clear
10:55 PM 73.4 °F - 66.2 °F 78% 29.64 in 10.0 mi SSE 6.9 mph - N/A   Clear
11:15 PM 73.4 °F - 66.2 °F 78% 29.64 in 10.0 mi SSE 6.9 mph - N/A   Clear
11:35 PM 73.4 °F - 66.2 °F 78% 29.62 in 10.0 mi SSE 9.2 mph - N/A   Clear
11:55 PM 73.4 °F - 66.2 °F 78% 29.63 in 10.0 mi South 8.1 mph - N/A   Clear